[[{"header":{"parameterUnit":"m.s-1","parameterCategory":1,"la1":30.2991,"la2":30.254,"lo1":-89.0895,"lo2":-89.0444,"dy":0.0017,"dx":0.0017,"nx":28,"ny":28,"refTime":"2025-04-01T21:00:00:Z","depth":0,"parameterNumber":2,"parameterNumberName":"U-component_of_WINDS"},"data":[0,0,0,0,0,0,0,0,0,0,0,0,0,0,0,0,0,0,0,0,0,0,0,0,0,0,0,0,0,0,0,0,0,0,0,0,0,0,0,0,0,0,0,0,0,0,0,0,0,0,0,0,0,0,0,0,0,0,-4.355,-4.3552,0,-4.3672,-4.3673,-4.3675,-4.3709,-4.3708,-4.3707,-4.3707,-4.3829,-4.3832,-4.3836,0,0,0,0,0,0,0,0,0,0,0,0,0,-4.3346,-4.335,-4.355,-4.3552,-4.3553,-4.3672,-4.3673,-4.3675,-4.3709,-4.3708,-4.3707,-4.3706,-4.3827,-4.3832,-4.3837,0,0,0,0,0,0,0,0,0,0,0,0,0,-4.3448,-4.3351,-4.355,-4.3585,-4.3589,-4.3671,-4.3673,-4.3675,-4.3709,-4.3708,-4.3707,-4.3706,-4.3826,-4.3831,-4.3837,-4.3893,0,0,-4.3855,-4.3857,0,0,0,0,0,0,0,0,-4.3442,-4.3455,-4.3578,-4.3582,-4.3587,-4.3674,-4.3646,-4.3748,-4.3709,-4.3663,-4.3707,-4.3706,-4.3778,-4.3788,-4.3813,-4.3899,-4.3904,-4.3855,-4.3859,-4.3861,-4.3863,0,0,0,0,0,0,0,-4.3435,-4.345,-4.3598,-4.358,-4.3585,-4.3594,-4.3607,-4.3666,-4.3725,-4.3667,-4.367,-4.3684,-4.378,-4.3807,-4.3816,-4.3906,-4.3855,-4.386,-4.3864,-4.3866,-4.4045,-4.4046,0,0,0,0,0,0,-4.3422,-4.3444,-4.3594,-4.3602,-4.3511,-4.3598,-4.3613,-4.3647,-4.3724,-4.3735,-4.3685,-4.3685,-4.3797,-4.3809,-4.382,-4.389,-4.3861,-4.3867,-4.387,-4.4044,-4.4045,-4.4047,0,0,0,0,0,0,-4.3418,-4.3435,-4.359,-4.3524,-4.3544,-4.3603,-4.3641,-4.365,-4.3677,-4.3738,-4.3748,-4.3701,-4.3797,-4.3812,-4.3875,-4.3895,-4.3869,-4.3875,-4.4042,-4.4044,-4.4046,-4.4031,0,0,0,0,0,0,-4.3412,-4.3434,-4.3455,-4.3524,-4.3548,-4.3643,-4.3642,-4.3653,-4.3687,-4.3689,-4.3756,-4.3766,-4.3797,-4.3866,-4.3881,-4.3903,-4.3879,-4.4041,-4.4043,-4.4045,-4.403,-4.4033,-4.4035,0,0,0,0,0,-4.3404,-4.3446,-4.3456,-4.3474,-4.3576,-4.3644,-4.3657,-4.3693,-4.3688,-4.3711,-4.375,-4.3764,-4.3891,-4.3872,-4.3889,-4.3913,-4.4039,-4.4042,-4.4045,-4.4029,-4.4032,-4.4034,0,0,0,0,0,0,-4.3377,-4.3455,-4.3468,-4.3533,-4.3582,-4.3649,-4.3679,-4.3695,-4.3745,-4.3745,-4.3787,-4.3802,-4.3862,-4.3894,-4.3872,-4.3972,-4.3966,-4.3972,-4.3948,-4.3951,-4.3953,-4.3943,-4.3884,0,0,0,0,0,-4.3379,-4.3427,-4.3493,-4.3544,-4.3568,-4.3619,-4.365,-4.3674,-4.3726,-4.3746,-4.379,-4.3839,-4.389,-4.3923,-4.3973,-4.4036,-4.4051,-4.4061,-4.4063,-4.4064,-4.4069,-4.4104,-4.4109,-4.4056,-4.4056,-4.4056,0,0,-4.3382,-4.3431,-4.3459,-4.354,-4.3581,-4.363,-4.3636,-4.3688,-4.3724,-4.3754,-4.3816,-4.385,-4.3908,-4.3971,-4.4001,-4.4,-4.4087,-4.4068,-4.4069,-4.4072,-4.4108,-4.4113,-4.4117,-4.4058,-4.4058,-4.4057,0,0,-4.3413,-4.3456,-4.3503,-4.3544,-4.3605,-4.3639,-4.3651,-4.3717,-4.3741,-4.3805,-4.3828,-4.3872,-4.3959,-4.3999,-4.4031,-4.408,-4.4094,-4.4095,-4.4105,-4.4139,-4.4144,-4.4148,-4.4164,-4.4169,-4.41,-4.41,-4.41,0,-4.3409,-4.3484,-4.3525,-4.3575,-4.361,-4.3641,-4.3689,-4.3727,-4.3801,-4.3824,-4.3822,-4.3933,-4.3974,-4.4047,-4.4059,-4.4084,-4.4098,-4.4086,-4.414,-4.4144,-4.4149,-4.4165,-4.4171,-4.4099,-4.4099,-4.41,-4.41,0,-4.3476,-4.3528,-4.3559,-4.3631,-4.367,-4.3719,-4.3766,-4.3801,-4.3822,-4.3856,-4.3921,-4.3972,-4.4033,-4.4053,-4.4074,-4.4129,-4.4126,-4.4132,-4.4126,-4.4153,-4.4168,-4.4175,-4.4099,-4.4099,-4.4099,-4.4099,0,0,-4.3491,-4.3586,-4.3597,-4.363,-4.3702,-4.3742,-4.3793,-4.3854,-4.3882,-4.3934,-4.3976,-4.4051,-4.4057,-4.4093,-4.4119,-4.4149,-4.4184,-4.4151,-4.4153,-4.4154,-4.4247,-4.4241,-4.4248,-4.4195,-4.4196,-4.4197,-4.4242,0,-4.353,-4.3622,-4.366,-4.3734,-4.3783,-4.3814,-4.3858,-4.3906,-4.394,-4.3986,-4.4023,-4.4075,-4.4079,-4.4101,-4.4133,-4.4173,-4.4203,-4.4171,-4.4234,-4.4236,-4.4216,-4.4256,-4.425,-4.429,-4.4249,-4.425,-4.4251,0,-4.3587,-4.3639,-4.3718,-4.3784,-4.3806,-4.3845,-4.3905,-4.3948,-4.4004,-4.4027,-4.4068,-4.4093,-4.4147,-4.414,-4.4215,-4.4192,-4.4221,-4.4245,-4.4247,-4.4253,-4.4243,-4.4261,-4.4304,-4.4309,-4.4261,-4.426,-4.4259,0,-4.3588,-4.3678,-4.3738,-4.3765,-4.3844,-4.3871,-4.3905,-4.396,-4.3995,-4.4047,-4.407,-4.4127,-4.4158,-4.4202,-4.4242,-4.4233,-4.4313,-4.4309,-4.4332,-4.4331,-4.4346,-4.4344,-4.4391,-4.4367,-4.4367,-4.4367,-4.4367,0,-4.3626,-4.3673,-4.3739,-4.3775,-4.3829,-4.3873,-4.3925,-4.3961,-4.401,-4.4053,-4.4084,-4.4124,-4.4175,-4.4222,-4.4254,-4.4311,-4.4325,-4.4344,-4.4351,-4.434,-4.4337,-4.4358,-4.4355,-4.4369,-4.4368,-4.4368,-4.4368,0,-4.3635,-4.3682,-4.3748,-4.3818,-4.3837,-4.3873,-4.3933,-4.3969,-4.4006,-4.406,-4.4075,-4.4132,-4.4189,-4.4234,-4.4307,-4.4329,-4.4388,-4.4397,-4.4369,-4.4373,-4.4393,-4.439,-4.4453,-4.4464,-4.4434,-4.4434,-4.4434,0,-4.3656,-4.3693,-4.3767,-4.3799,-4.3833,-4.3884,-4.392,-4.3965,-4.4001,-4.4069,-4.4096,-4.4156,-4.4205,-4.4294,-4.4341,-4.4398,-4.4408,-4.4426,-4.4416,-4.4404,-4.4406,-4.4403,-4.4407,-4.4426,-4.4427,-4.4427,-4.4427,0,-4.3687,-4.3708,-4.3759,-4.3818,-4.3861,-4.3909,-4.3958,-4.3983,-4.4037,-4.4076,-4.4135,-4.4173,-4.425,-4.4307,-4.4369,-4.4404,-4.4424,-4.443,-4.4438,-4.4426,-4.4408,-4.4417,-4.437,-4.4428,-4.4428,-4.4427,-4.4427,-4.4427,-4.3702,-4.3736,-4.3794,-4.385,-4.3892,-4.3938,-4.3975,-4.4017,-4.4067,-4.4132,-4.4157,-4.4217,-4.4273,-4.4358,-4.4394,-4.4441,-4.4442,-4.4454,-4.4457,-4.4459,-4.4457,-4.4402,-4.4453,-4.4453,-4.4453,-4.4453,-4.4453,0,-4.3733,-4.3772,-4.3823,-4.3892,-4.3936,-4.3953,-4.4009,-4.4044,-4.4097,-4.4148,-4.4196,-4.4264,-4.4321,-4.4374,-4.4433,-4.4461,-4.4472,-4.4475,-4.4472,-4.448,-4.4453,-4.4439,-4.4465,-4.4465,-4.4465,-4.4465,-4.4465,-4.4465,-4.3754,-4.3813,-4.3842,-4.3922,-4.3961,-4.4021,-4.4051,-4.4094,-4.4134,-4.4209,-4.4256,-4.4291,-4.4343,-4.4406,-4.4459,-4.4474,-4.4493,-4.4494,-4.451,-4.4483,-4.4482,-4.448,-4.4467,-4.4498,-4.4498,-4.4533,-4.4533,-4.4533]},{"header":{"parameterUnit":"m.s-1","parameterCategory":1,"la1":30.2991,"la2":30.254,"lo1":-89.0895,"lo2":-89.0444,"dy":0.0017,"dx":0.0017,"nx":28,"ny":28,"refTime":"2025-04-01T21:00:00:Z","depth":0,"parameterNumber":3,"parameterNumberName":"V-component_of_WINDS"},"data":[0,0,0,0,0,0,0,0,0,0,0,0,0,0,0,0,0,0,0,0,0,0,0,0,0,0,0,0,0,0,0,0,0,0,0,0,0,0,0,0,0,0,0,0,0,0,0,0,0,0,0,0,0,0,0,0,0,0,6.3595,6.3596,0,6.3669,6.367,6.367,6.3658,6.3657,6.3655,6.3654,6.3725,6.3728,6.3731,0,0,0,0,0,0,0,0,0,0,0,0,0,6.344,6.3443,6.3595,6.3596,6.3597,6.3669,6.367,6.3671,6.3658,6.3657,6.3655,6.3654,6.3724,6.3727,6.3731,0,0,0,0,0,0,0,0,0,0,0,0,0,6.3509,6.3443,6.3595,6.3599,6.36,6.3668,6.367,6.3671,6.3658,6.3657,6.3655,6.3653,6.3722,6.3727,6.3731,6.3798,0,0,6.3745,6.3747,0,0,0,0,0,0,0,0,6.3506,6.3515,6.3598,6.3599,6.36,6.3652,6.3641,6.3713,6.3659,6.3636,6.3654,6.3652,6.3702,6.3708,6.3726,6.3801,6.3804,6.3746,6.3749,6.3751,6.3752,0,0,0,0,0,0,0,6.3501,6.3512,6.3624,6.3599,6.3601,6.3597,6.3604,6.3654,6.3679,6.3638,6.3637,6.3647,6.3702,6.3721,6.3727,6.3805,6.3746,6.375,6.3753,6.3754,6.3942,6.3944,0,0,0,0,0,0,6.3495,6.3508,6.3621,6.3626,6.3548,6.3601,6.361,6.3637,6.3678,6.3683,6.3648,6.3646,6.3714,6.3722,6.373,6.3813,6.375,6.3755,6.3757,6.394,6.3943,6.3945,0,0,0,0,0,0,6.3492,6.3505,6.3618,6.3567,6.3581,6.3606,6.3637,6.364,6.3659,6.3686,6.369,6.3664,6.3713,6.3723,6.3782,6.3815,6.3757,6.3761,6.3937,6.3941,6.3944,6.3978,0,0,0,0,0,0,6.3487,6.3504,6.353,6.3568,6.3584,6.3671,6.3639,6.3643,6.3668,6.3665,6.3701,6.3705,6.3713,6.3775,6.3787,6.382,6.3765,6.3934,6.3939,6.3943,6.3974,6.3982,6.3989,0,0,0,0,0,6.3482,6.3535,6.3532,6.3545,6.3617,6.3673,6.3682,6.369,6.3671,6.3697,6.3714,6.3704,6.3809,6.3782,6.3794,6.383,6.3932,6.3938,6.3943,6.3971,6.398,6.3989,0,0,0,0,0,0,6.3498,6.354,6.3537,6.3603,6.3635,6.367,6.3704,6.37,6.3736,6.3732,6.374,6.3748,6.3808,6.3824,6.3793,6.3898,6.3868,6.3876,6.3885,6.3895,6.3902,6.3897,6.3768,0,0,0,0,0,6.351,6.3552,6.3586,6.3642,6.3658,6.3678,6.3703,6.3707,6.3739,6.3752,6.3773,6.3804,6.3844,6.387,6.3908,6.3976,6.3985,6.4007,6.4014,6.402,6.4027,6.4067,6.4078,6.3962,6.3962,6.3962,0,0,6.3533,6.3561,6.3587,6.3646,6.3671,6.3715,6.3689,6.3736,6.3769,6.3758,6.3817,6.3834,6.3868,6.3933,6.3962,6.3948,6.4062,6.4027,6.4031,6.4035,6.4074,6.4085,6.4094,6.3965,6.3964,6.3964,0,0,6.3599,6.3625,6.3676,6.3702,6.3741,6.3755,6.3767,6.3804,6.3816,6.3875,6.387,6.3908,6.3976,6.4002,6.4024,6.4104,6.4097,6.4116,6.4155,6.4194,6.4203,6.4211,6.4242,6.4253,6.4122,6.4122,6.4122,0,6.3624,6.3691,6.3701,6.3751,6.3777,6.3773,6.3825,6.3849,6.3897,6.3916,6.3899,6.3988,6.401,6.4083,6.4103,6.412,6.4135,6.4112,6.4201,6.421,6.4217,6.4247,6.4258,6.4125,6.4124,6.4124,6.4124,0,6.372,6.3767,6.3803,6.3854,6.3884,6.3934,6.3952,6.3981,6.3984,6.3999,6.406,6.4088,6.4133,6.415,6.4151,6.4224,6.4214,6.4199,6.417,6.4231,6.4258,6.4269,6.4128,6.4127,6.4126,6.4126,0,0,6.3797,6.3856,6.3869,6.3894,6.3938,6.3974,6.4024,6.4071,6.4097,6.4131,6.4174,6.4234,6.4222,6.4247,6.4251,6.4285,6.435,6.4267,6.4268,6.4283,6.4434,6.4446,6.4459,6.4345,6.4348,6.4349,6.4432,0,6.3869,6.396,6.3973,6.4053,6.4098,6.4096,6.4139,6.4171,6.4187,6.4227,6.4244,6.4287,6.4267,6.4283,6.4316,6.4335,6.4381,6.4329,6.4386,6.4388,6.4379,6.4473,6.4485,6.4561,6.4442,6.4444,6.4445,0,6.3965,6.4006,6.4092,6.4134,6.4153,6.4192,6.4238,6.4275,6.4312,6.4321,6.4351,6.4352,6.4404,6.4373,6.4445,6.441,6.4434,6.4447,6.445,6.4457,6.4421,6.4483,6.4585,6.4598,6.4462,6.4461,6.446,0,6.4016,6.4092,6.4154,6.4175,6.4224,6.4252,6.4274,6.4309,6.4337,6.4376,6.4395,6.4438,6.4463,6.4496,6.4509,6.4485,6.4582,6.455,6.4592,6.4592,6.4613,6.4611,6.4722,6.4626,6.4625,6.4625,6.4625,0,6.4096,6.4149,6.4178,6.4216,6.4276,6.429,6.4348,6.4368,6.44,6.4442,6.4441,6.448,6.4495,6.4536,6.4546,6.4606,6.4616,6.4625,6.4628,6.4627,6.4626,6.4643,6.4639,6.4628,6.4628,6.4627,6.4626,0,6.4163,6.4184,6.4253,6.4295,6.4307,6.435,6.4385,6.4423,6.4439,6.4493,6.4506,6.4531,6.4581,6.4597,6.4655,6.4662,6.4733,6.4729,6.4721,6.4722,6.4763,6.476,6.489,6.4908,6.4798,6.4799,6.48,0,6.4214,6.4255,6.4304,6.4333,6.4357,6.4403,6.4434,6.4449,6.448,6.4527,6.4559,6.4608,6.4648,6.4727,6.475,6.4795,6.4794,6.4837,6.4801,6.4799,6.4797,6.4796,6.4801,6.4844,6.4845,6.4846,6.4846,0,6.4303,6.4312,6.4357,6.4406,6.4443,6.4482,6.4519,6.4542,6.4563,6.4598,6.465,6.4682,6.4744,6.4793,6.484,6.4861,6.4858,6.4858,6.487,6.487,6.4865,6.487,6.4742,6.4855,6.4854,6.4853,6.4853,6.4852,6.4364,6.4403,6.4444,6.4494,6.4525,6.4561,6.4599,6.4622,6.4666,6.4719,6.4725,6.4781,6.4819,6.4882,6.4905,6.4949,6.4937,6.4954,6.4959,6.4964,6.4968,6.4857,6.4957,6.4957,6.4957,6.4957,6.4957,0,6.4455,6.4482,6.4529,6.4583,6.4623,6.4619,6.4661,6.4694,6.4745,6.4781,6.4822,6.4883,6.4931,6.496,6.5008,6.5038,6.5038,6.5051,6.5049,6.5055,6.4975,6.496,6.505,6.505,6.505,6.505,6.505,6.505,6.4507,6.4573,6.4587,6.4668,6.4694,6.4752,6.4777,6.481,6.4839,6.4908,6.495,6.4969,6.5002,6.5054,6.5098,6.5105,6.5124,6.5138,6.5144,6.5069,6.506,6.5051,6.5037,6.5142,6.5142,6.5221,6.5222,6.5222]}]]